Billings, MT

3:17 PM MDT on September 24, 2016 (GMT -0600)
Billings Logan International

Weather History for KBIL - August, 2013

Change the Weather History Date:

Thursday, August 8, 2013

  Actual Average Record
Temperature  
Mean Temperature 70 °F 74 °F  
Max Temperature 83 °F 88 °F 100 °F (1958)
Min Temperature 56 °F 59 °F 39 °F (1939)
Degree Days  
Heating Degree Days 0 0  
Month to date heating degree days 0 0  
Since 1 June heating degree days 73 111  
Since 1 July heating degree days 0 15  
Cooling Degree Days 5 9  
Month to date cooling degree days 48 72  
Year to date cooling degree days 469 430  
Since 1 June cooling degree days 442 413  
Growing Degree Days 18 (Base 50)    
Moisture  
Dew Point 51 °F    
Average Humidity 55    
Maximum Humidity 77    
Minimum Humidity 33    
Precipitation  
Precipitation T in 0.03 in 0.43 in (1995)
Month to date precipitation 0.19 0.23  
Year to date precipitation 8.18 9.53  
Snow  
Snow 0.00 in 0.00 in T in (1954)
Month to date snowfall T 0.0  
Since 1 June snowfall T 0.0  
Since 1 July snowfall T 0.0  
Snow Depth 0.00 in    
Sea Level Pressure  
Sea Level Pressure 29.99 in    
Wind  
Wind Speed 11 mph (NE)    
Max Wind Speed 22 mph    
Max Gust Speed 27 mph    
Visibility 10 miles    
Events Rain , Thunderstorm    
T = Trace of Precipitation, MM = Missing Value Source: NWS Daily Summary

Daily Weather History Graph

Daily Weather History Graph

Search for Another Location

Airport or City:

Trip Planner

Search our weather history database for the weather conditions in past years. The results will help you decide how hot, cold, wet, or windy it might be!

Date:

Astronomy

Aug. 08, 2013 Rise Set
Actual Time 6:05 AM MDT 8:32 PM MDT
Civil Twilight 5:32 AM MDT 9:06 PM MDT
Nautical Twilight 4:50 AM MDT 9:47 PM MDT
Astronomical Twilight 4:03 AM MDT 10:34 PM MDT
Moon 8:05 AM MDT (8/8) 9:02 PM MDT (8/8)
Length of Visible Light 15h 33m
Length of Day
14h 26m
Waxing Crescent, 3% of the Moon is Illuminated
Aug 8
Waxing Crescent
Aug 14
First Quarter
Aug 20
Full
Aug 28
Last Quarter
Sep 5
New

Hourly Weather History & Observations

Time (MDT) Temp. Dew Point Humidity Pressure Visibility Wind Dir Wind Speed Gust Speed Precip Events Conditions
12:53 AM 63.0 °F 51.1 °F 65% 29.97 in 10.0 mi North 5.8 mph - N/A   Clear
1:53 AM 62.1 °F 51.1 °F 67% 29.97 in 10.0 mi North 9.2 mph - N/A   Clear
2:53 AM 60.1 °F 51.1 °F 72% 29.96 in 10.0 mi North 8.1 mph - N/A   Clear
3:53 AM 57.9 °F 50.0 °F 75% 29.96 in 10.0 mi North 9.2 mph - N/A   Clear
4:53 AM 57.9 °F 50.0 °F 75% 29.97 in 10.0 mi NNW 5.8 mph - N/A   Clear
5:53 AM 55.9 °F 48.9 °F 77% 29.99 in 10.0 mi NNW 8.1 mph - N/A   Partly Cloudy
6:53 AM 57.9 °F 50.0 °F 75% 29.99 in 10.0 mi North 5.8 mph - N/A   Partly Cloudy
7:53 AM 59.0 °F 50.0 °F 72% 30.02 in 10.0 mi East 4.6 mph - N/A   Partly Cloudy
8:53 AM 62.1 °F 50.0 °F 65% 30.03 in 10.0 mi NE 5.8 mph - N/A   Partly Cloudy
9:53 AM 66.9 °F 51.1 °F 57% 30.03 in 10.0 mi East 5.8 mph - N/A   Partly Cloudy
10:53 AM 70.0 °F 52.0 °F 53% 30.02 in 10.0 mi NNE 4.6 mph - N/A   Partly Cloudy
11:53 AM 73.0 °F 52.0 °F 48% 30.01 in 10.0 mi NE 8.1 mph - N/A   Partly Cloudy
12:53 PM 78.1 °F 52.0 °F 40% 29.99 in 10.0 mi NE 13.8 mph - N/A   Partly Cloudy
1:53 PM 81.0 °F 50.0 °F 34% 29.97 in 10.0 mi NE 16.1 mph - N/A   Partly Cloudy
2:53 PM 82.0 °F 50.0 °F 33% 29.95 in 10.0 mi NE 16.1 mph 24.2 mph N/A   Partly Cloudy
3:53 PM 82.0 °F 50.0 °F 33% 29.95 in 10.0 mi NE 18.4 mph - N/A   Partly Cloudy
4:53 PM 82.0 °F 50.0 °F 33% 29.95 in 10.0 mi ENE 19.6 mph - N/A   Partly Cloudy
5:53 PM 79.0 °F 50.0 °F 36% 29.96 in 10.0 mi NE 17.3 mph - N/A   Scattered Clouds
6:53 PM 78.1 °F 50.0 °F 37% 29.97 in 10.0 mi NE 15.0 mph - N/A   Scattered Clouds
7:53 PM 75.9 °F 51.1 °F 42% 29.97 in 10.0 mi ENE 15.0 mph - N/A   Scattered Clouds
8:53 PM 73.9 °F 50.0 °F 43% 29.99 in 10.0 mi ENE 13.8 mph - N/A   Scattered Clouds
9:53 PM 72.0 °F 52.0 °F 49% 30.02 in 10.0 mi ENE 10.4 mph - 0.00 in Rain , Thunderstorm Light Thunderstorms and Rain
10:34 PM 70.0 °F 52.0 °F 53% 30.09 in 10.0 mi NE 12.7 mph - 0.00 in   Mostly Cloudy
10:53 PM 71.1 °F 51.1 °F 49% 30.01 in 10.0 mi NE 12.7 mph - 0.00 in   Mostly Cloudy
11:53 PM 68.0 °F 51.1 °F 55% 30.03 in 10.0 mi NNE 10.4 mph - N/A   Scattered Clouds